Home > Weather > Hadera > Past weeks

Flag for Israel Past Weather in Hadera, Israel — Yesterday and Last 2 Weeks

Now
79 °F

Clear.


Feels Like: 82 °F
Forecast: 78 / 89 °F
Wind: 1 mph from North

Location: Dov Airport

Current Time: Jun 26, 2016 at 12:24:16 AM

Latest Report: Jun 25, 2016 at 10:50 PM


Visibility: 10 mi

Pressure: 29.77 "Hg

Humidity: 89%

Dew Point: 75 °F

Location of HaderaLocation

Past Weather in Hadera — Graph

°F

Hadera Temperature Yesterday

Maximum temperature yesterday: 86 °F (at 1:50 PM)
Minimum temperature yesterday: 75 °F (at 6:50 AM)
Average temperature yesterday: 81 °F

High & Low Weather Summary for the Past Weeks

 TemperatureHumidityPressure
High88 °F (Jun 15, 11:50 AM)94% (Jun 20, 5:50 AM)30.01 "Hg (Jun 20, 5:50 AM)
Low70 °F (Jun 12, 6:00 AM)31% (Jun 15, 7:50 AM)29.68 "Hg (Jun 24, 4:50 PM)
Average79 °F74%29.79 "Hg
* Reported Jun 11 6:50 AM — Jun 25 10:50 PM, Hadera, Weather by CustomWeather, © 2016

Note: Actual official high and low records may vary slightly from our data, if they occured in-between our weather recording intervals... More about our weather records

Advertising

Hadera Weather History for the Previous 24 Hours

Scroll right to see more
 ConditionsComfort  
Time TempWeatherWind HumidityBarometerVisibility
10:50 PM
Sat, Jun 25
79 °FClear.1 mph89%29.77 "Hg10 mi
9:50 PM79 °FClear.2 mph89%29.77 "Hg10 mi
8:50 PM81 °FScattered clouds.3 mph84%29.77 "HgN/A
7:50 PM81 °FScattered clouds.5 mph84%29.77 "HgN/A
6:50 PM82 °FScattered clouds.5 mph79%29.74 "HgN/A
5:50 PM82 °FScattered clouds.6 mph79%29.74 "HgN/A
4:50 PM84 °FPartly sunny.8 mph74%29.74 "HgN/A
3:50 PM84 °FPartly sunny.10 mph74%29.77 "HgN/A
2:50 PM86 °FPassing clouds.9 mph70%29.74 "HgN/A
1:50 PM86 °FSunny.12 mph70%29.74 "Hg10 mi
12:50 PM84 °FSunny.13 mph70%29.74 "Hg10 mi
11:50 AM84 °FSunny.10 mph74%29.74 "Hg10 mi
10:50 AM84 °FSunny.10 mph70%29.74 "Hg10 mi
9:50 AM82 °FPassing clouds.10 mph74%29.74 "Hg6 mi
8:50 AM81 °FPartly sunny.6 mph79%29.74 "Hg5 mi
7:50 AM77 °FPartly sunny.5 mph89%29.74 "Hg4 mi
6:50 AM75 °FPassing clouds.5 mph89%29.71 "Hg4 mi
5:50 AM77 °FPassing clouds.3 mph89%29.71 "Hg5 mi
5:00 AM77 °FPassing clouds.7 mph89%29.71 "Hg5 mi
Weather by CustomWeather, © 2016

See weather overviewHow to use our weather pages